Wind_Speed
26 26 27 27 27 27 27 27 28 29 29 29 29 29 29 29 29 30 30 31 31 31 31 31 31 30 30 30 29 29 29 29 28 29 28 28 28 27 27 27 27 26 26
26 27 27 28 28 27 27 27 28 29 30 29 30 30 29 30 30 31 32 33 33 34 34 34 34 34 33 33 32 31 31 31 31 31 31 30 30 30 30 29 29 29 29
27 27 27 28 29 28 28 28 28 29 29 29 30 31 31 31 32 32 33 34 35 35 36 36 36 36 36 36 35 34 33 33 33 33 33 33 32 32 32 32 31 31 31
28 29 28 28 29 29 28 28 28 29 30 30 30 31 31 32 33 33 34 35 36 36 37 38 38 37 37 38 37 37 36 36 36 35 35 35 34 34 34 34 34 34 33
29 29 30 29 29 29 29 29 29 29 30 30 30 31 32 33 34 34 35 37 37 37 37 38 38 38 39 39 39 38 38 37 37 37 37 36 36 36 36 36 36 36 36
30 30 30 30 31 30 30 30 30 30 30 30 31 31 32 33 34 35 35 37 38 38 39 39 39 39 39 39 40 39 39 39 38 39 39 38 38 38 38 38 38 38 39
31 31 31 31 31 31 31 31 31 31 32 32 32 32 33 33 34 34 35 36 37 38 39 40 40 40 40 40 41 41 41 41 40 40 40 40 39 39 40 40 40 40 40
31 31 31 32 32 32 32 32 32 32 31 32 33 33 33 34 35 35 35 36 37 38 39 40 40 41 41 41 41 42 43 42 42 42 42 41 41 41 41 42 42 42 42
31 31 32 32 33 33 33 33 33 33 33 33 33 33 33 34 35 36 37 36 36 37 38 39 40 40 41 41 42 41 42 42 43 43 43 44 44 44 44 44 44 45 44
31 32 32 33 33 33 34 34 34 34 34 34 34 34 34 34 35 35 36 37 36 36 38 39 40 41 41 42 43 42 43 43 43 44 44 44 44 45 45 45 46 46 46
33 33 33 33 33 34 34 34 35 34 34 34 34 34 35 35 35 35 36 37 38 38 37 38 39 40 41 42 43 44 44 44 44 44 44 45 45 46 45 45 45 46 46
35 35 35 34 34 34 35 35 35 35 35 35 36 35 35 35 35 35 36 37 38 39 39 39 40 40 40 42 43 45 45 45 45 45 45 45 45 46 46 45 45 46 47
36 36 36 35 35 36 36 36 36 36 36 36 36 36 36 35 35 35 36 36 37 38 39 39 40 42 41 41 42 43 45 45 45 46 46 46 46 46 46 45 45 46 46
37 37 37 37 36 37 37 37 37 37 37 36 36 37 36 36 35 36 36 36 37 39 39 39 39 41 40 41 42 43 44 45 45 46 48 47 47 47 47 47 48 48 48
38 37 37 37 37 37 37 37 37 37 37 37 37 36 36 37 37 36 36 36 37 38 38 38 39 40 40 40 42 43 44 45 45 45 46 47 47 48 49 50 50 51 51
39 39 39 38 38 38 38 38 37 37 37 37 37 37 37 37 38 38 38 37 38 39 39 39 39 40 40 41 41 41 42 44 45 45 46 47 48 48 49 50 51 51 52
40 40 40 39 39 38 38 38 38 38 38 37 37 37 38 38 38 39 38 38 39 39 39 39 40 41 42 42 41 41 41 42 44 45 46 47 48 49 49 50 51 51 52
40 40 40 40 39 39 39 38 38 39 39 39 39 39 38 38 38 38 38 38 38 39 39 40 40 40 41 43 43 43 42 43 43 45 46 47 48 49 49 50 51 52 53
39 39 39 39 39 39 39 39 39 40 40 40 40 39 38 37 37 37 37 37 37 38 38 39 39 40 40 41 42 42 42 42 43 44 45 47 48 48 49 50 51 52 53
39 39 38 38 38 38 38 38 39 39 39 40 39 38 37 37 37 37 38 38 37 37 38 39 39 39 40 40 41 41 41 42 43 45 46 47 48 49 50 51 52 54 55
39 39 38 38 37 38 38 37 37 38 38 38 39 38 37 37 38 38 38 38 38 38 38 38 39 39 39 40 41 42 42 43 44 45 47 48 49 50 51 52 53 54 55
40 39 38 38 37 37 37 37 38 38 38 38 39 39 39 38 38 37 37 37 38 38 39 39 39 38 39 41 42 42 43 43 44 45 47 48 49 50 51 53 53 54 54
40 40 39 38 37 36 37 37 37 37 38 39 39 39 39 39 38 38 38 38 38 38 39 40 40 40 41 42 42 42 43 45 45 46 47 48 49 50 52 53 54 54 54
40 40 39 38 37 37 37 37 37 38 39 39 39 39 39 39 39 38 38 38 39 39 39 40 41 41 41 41 41 42 42 43 44 45 46 46 47 48 49 50 51 52 53
41 40 39 39 39 39 39 39 39 39 39 39 39 39 39 38 38 39 39 39 39 39 38 39 39 39 39 40 40 41 41 41 41 42 43 45 46 46 47 48 48 49 49
41 40 40 40 40 40 40 39 39 39 39 39 39 39 39 39 39 39 39 39 38 38 38 38 37 37 38 39 39 40 41 41 41 41 42 44 45 45 45 46 47 48 48
Wind_Direction
253 253 252 252 252 253 254 254 252 252 254 254 252 253 254 253 254 255 255 255 254 254 255 255 254 253 253 252 252 252 253 253 254 254 255 257 258 259 260 262 264 265 267
255 254 253 252 251 253 255 255 254 254 255 255 252 253 255 255 255 256 255 255 255 256 255 255 255 254 255 254 253 253 254 254 255 255 256 257 259 260 261 262 264 265 267
257 256 254 252 252 253 255 256 253 253 254 255 254 253 255 256 257 256 256 256 256 256 256 256 256 255 255 255 254 255 255 256 256 257 257 258 259 261 262 263 264 266 267
257 256 256 255 254 254 255 256 255 254 254 255 255 256 257 258 258 259 258 257 257 257 257 256 255 253 254 255 256 256 257 258 259 260 259 259 260 261 262 263 264 266 267
257 257 256 256 257 256 256 256 256 256 255 256 256 256 258 259 259 260 260 260 259 259 258 257 256 253 254 255 255 256 257 258 259 260 260 260 261 261 262 263 265 266 266
257 256 256 255 256 256 255 255 256 256 257 258 259 260 260 260 260 260 261 261 260 259 258 256 256 254 254 256 256 256 257 258 259 259 260 260 261 261 262 263 265 266 266
258 257 256 255 255 256 256 257 258 257 258 259 259 261 263 263 262 262 262 262 261 259 257 256 256 255 254 257 256 256 257 258 259 259 260 261 262 262 263 264 266 266 266
259 259 257 257 257 257 258 259 259 260 261 261 261 263 264 264 264 263 264 263 261 260 258 257 256 254 254 256 258 258 259 259 259 259 260 261 263 263 264 265 266 267 268
259 259 259 258 258 260 260 260 261 262 262 263 263 264 265 266 266 264 264 264 262 260 259 258 257 255 254 255 257 258 260 260 260 260 261 263 264 264 264 265 267 268 268
260 260 260 260 260 260 260 260 260 262 262 262 263 265 267 267 267 266 265 264 263 262 260 257 257 256 255 255 257 258 259 260 260 261 262 263 264 265 266 266 266 267 268
260 260 260 261 261 261 261 261 261 262 262 262 263 265 267 267 267 266 265 265 265 263 261 258 257 257 257 257 257 259 260 260 262 262 263 263 264 265 266 266 267 268 269
260 260 260 261 262 262 262 261 261 263 263 262 263 264 266 267 267 267 266 266 265 263 262 261 260 259 260 259 259 259 261 262 263 264 264 264 263 264 265 266 267 268 269
259 260 260 261 261 261 261 261 261 262 263 263 264 264 266 267 267 268 267 266 266 264 264 264 261 260 261 260 261 262 262 262 263 263 264 265 265 265 267 268 268 268 269
259 260 261 261 261 261 261 262 261 262 263 264 265 265 265 267 267 267 266 267 267 265 265 264 263 262 263 262 262 263 262 262 263 264 264 265 265 266 267 268 269 269 269
259 260 262 261 262 262 261 261 261 261 262 264 264 265 267 267 267 266 265 267 268 269 267 264 262 263 264 263 263 264 263 263 264 264 265 266 267 268 268 269 270 270 271
260 261 261 262 262 262 261 260 261 261 262 264 264 265 266 267 267 266 266 267 270 270 268 265 263 263 263 263 264 265 265 265 266 266 266 267 268 268 269 270 270 271 272
259 260 261 261 262 261 260 260 261 262 263 264 265 265 267 268 269 269 268 269 270 270 267 265 265 265 265 265 265 266 266 267 267 267 268 269 269 269 270 271 272 273 273
260 261 262 261 262 261 260 261 262 262 263 264 265 266 268 268 269 268 268 269 270 270 267 266 267 267 267 267 268 268 267 268 269 269 269 269 270 271 271 272 273 274 275
260 261 262 262 261 260 260 260 261 263 264 265 265 266 267 268 268 268 268 269 270 270 269 268 268 268 268 270 270 269 269 270 271 271 270 271 271 272 273 273 274 275 276
259 261 262 262 260 260 260 261 262 263 265 266 266 266 268 268 269 269 269 270 270 270 270 269 269 268 269 270 270 271 272 273 274 274 273 273 272 273 274 274 275 276 277
260 260 261 261 260 260 261 261 262 264 265 265 265 266 268 270 270 270 269 268 268 269 270 271 270 269 269 270 271 273 274 276 277 276 276 274 274 275 276 276 277 277 278
259 260 260 261 261 261 260 261 262 263 264 264 265 266 267 268 269 269 269 269 269 269 270 271 271 270 270 272 273 274 276 277 277 277 277 277 276 277 278 277 278 278 278
260 260 261 260 260 260 261 261 262 263 264 266 266 266 267 268 269 269 269 269 270 271 271 271 271 272 272 273 273 274 277 278 278 277 277 277 278 279 280 280 279 279 279
259 259 260 259 259 260 260 262 262 263 265 267 267 267 268 269 269 270 270 269 269 271 272 272 274 274 274 274 274 276 278 278 278 279 278 279 279 280 281 282 282 281 281
259 258 257 258 259 260 261 262 263 264 265 266 267 267 268 268 269 269 270 270 270 271 272 273 275 275 274 275 276 277 278 279 280 280 281 281 282 283 283 283 283 282 282
257 256 257 258 259 259 261 262 263 265 265 266 266 267 268 269 268 268 269 270 270 271 272 273 274 276 276 276 277 278 279 280 281 281 282 283 284 284 285 284 283 283 283
Height
5789 5790 5791 5792 5793 5794 5795 5796 5797 5798 5799 5800 5801 5802 5803 5805 5806 5807 5808 5809 5811 5812 5813 5814 5815 5815 5816 5817 5818 5819 5820 5821 5822 5823 5824 5825 5825 5826 5826 5826 5826 5827 5827
5783 5784 5784 5786 5786 5787 5788 5790 5791 5791 5792 5793 5795 5796 5797 5798 5799 5800 5801 5802 5804 5805 5806 5807 5808 5809 5810 5811 5812 5813 5814 5815 5816 5817 5818 5819 5819 5820 5820 5820 5821 5821 5821
5776 5777 5778 5779 5780 5781 5782 5783 5784 5785 5786 5787 5788 5789 5790 5791 5792 5793 5794 5795 5796 5797 5798 5799 5801 5802 5803 5804 5805 5806 5807 5808 5809 5810 5811 5812 5812 5813 5814 5814 5814 5814 5814
5770 5771 5771 5772 5773 5774 5775 5776 5777 5778 5779 5780 5781 5782 5782 5783 5784 5785 5786 5786 5787 5788 5790 5791 5792 5794 5795 5796 5797 5799 5800 5801 5802 5803 5804 5805 5805 5806 5807 5807 5807 5807 5807
5763 5764 5765 5765 5766 5767 5768 5769 5770 5771 5772 5773 5773 5774 5775 5775 5776 5776 5777 5778 5779 5780 5781 5782 5783 5785 5787 5788 5789 5791 5792 5793 5794 5795 5796 5797 5797 5798 5799 5799 5799 5800 5800
5756 5757 5757 5758 5759 5760 5761 5762 5763 5764 5764 5765 5766 5767 5767 5767 5768 5768 5768 5768 5769 5770 5771 5772 5774 5776 5778 5779 5781 5782 5783 5785 5786 5787 5787 5788 5789 5790 5790 5791 5791 5791 5791
5748 5749 5750 5751 5752 5753 5753 5754 5755 5756 5756 5757 5758 5759 5759 5759 5759 5759 5758 5759 5759 5760 5762 5763 5765 5767 5769 5771 5772 5773 5774 5776 5777 5778 5779 5780 5780 5781 5781 5782 5782 5783 5783
5741 5741 5742 5743 5744 5745 5746 5746 5747 5748 5748 5749 5750 5750 5750 5751 5750 5750 5750 5750 5750 5751 5752 5754 5755 5757 5760 5761 5763 5764 5765 5766 5767 5768 5770 5770 5771 5772 5772 5772 5773 5773 5773
5733 5734 5734 5735 5736 5737 5737 5738 5739 5740 5740 5741 5741 5741 5742 5742 5742 5742 5741 5741 5741 5742 5743 5744 5746 5747 5749 5751 5753 5754 5755 5757 5758 5759 5760 5760 5761 5762 5762 5762 5762 5762 5763
5725 5726 5726 5727 5727 5728 5729 5730 5730 5731 5731 5732 5732 5732 5733 5733 5733 5733 5733 5732 5732 5732 5733 5735 5736 5738 5739 5741 5743 5744 5745 5747 5748 5749 5750 5750 5751 5751 5752 5752 5752 5752 5752
5716 5717 5718 5718 5719 5719 5720 5720 5721 5722 5723 5723 5723 5724 5724 5723 5723 5724 5724 5723 5723 5723 5724 5726 5727 5728 5729 5731 5732 5734 5735 5736 5737 5738 5739 5740 5740 5740 5740 5741 5741 5741 5741
5707 5708 5709 5709 5710 5710 5711 5711 5712 5713 5713 5714 5714 5714 5714 5714 5714 5714 5714 5714 5714 5714 5714 5716 5716 5718 5719 5720 5722 5723 5724 5725 5726 5727 5728 5728 5729 5729 5729 5729 5729 5730 5730
5698 5699 5699 5700 5700 5701 5701 5702 5703 5703 5704 5704 5704 5705 5705 5704 5704 5704 5704 5704 5704 5705 5705 5706 5706 5707 5708 5709 5711 5712 5713 5714 5715 5715 5716 5717 5717 5717 5717 5718 5718 5718 5718
5688 5689 5690 5690 5691 5691 5692 5692 5693 5694 5694 5695 5695 5695 5695 5695 5694 5694 5694 5694 5695 5695 5695 5696 5696 5697 5698 5699 5700 5701 5702 5702 5703 5703 5704 5705 5705 5705 5705 5705 5705 5705 5705
5678 5679 5680 5681 5681 5681 5682 5683 5683 5684 5685 5685 5686 5686 5686 5685 5685 5685 5685 5685 5685 5685 5686 5686 5686 5686 5686 5688 5688 5689 5690 5691 5691 5691 5691 5692 5692 5693 5693 5693 5692 5692 5692
5668 5669 5670 5670 5671 5671 5672 5673 5673 5674 5675 5676 5676 5676 5676 5676 5676 5675 5675 5675 5675 5675 5675 5676 5676 5676 5676 5676 5677 5677 5677 5678 5678 5679 5679 5679 5680 5680 5679 5679 5679 5678 5678
5657 5658 5659 5660 5660 5661 5662 5663 5663 5664 5665 5666 5666 5666 5666 5666 5666 5665 5665 5665 5665 5664 5664 5665 5665 5665 5665 5665 5665 5665 5665 5666 5666 5666 5666 5666 5666 5666 5666 5665 5665 5664 5663
5646 5647 5648 5649 5650 5650 5651 5652 5653 5654 5655 5655 5656 5656 5656 5656 5656 5655 5655 5655 5654 5654 5653 5654 5654 5654 5654 5654 5653 5653 5653 5653 5653 5653 5653 5653 5653 5653 5652 5652 5651 5650 5649
5635 5636 5637 5638 5639 5640 5641 5642 5643 5644 5644 5645 5645 5646 5646 5646 5646 5645 5645 5644 5644 5643 5643 5643 5643 5643 5643 5643 5642 5642 5641 5641 5641 5641 5640 5640 5640 5639 5638 5638 5637 5636 5634
5624 5625 5626 5627 5627 5629 5630 5631 5632 5633 5634 5634 5635 5635 5635 5635 5635 5635 5635 5634 5634 5633 5633 5632 5633 5633 5632 5631 5631 5630 5630 5630 5629 5628 5627 5627 5626 5625 5624 5624 5623 5621 5619
5613 5613 5615 5615 5616 5618 5619 5620 5621 5622 5623 5624 5624 5625 5625 5625 5625 5625 5624 5624 5624 5623 5623 5622 5622 5622 5621 5621 5620 5619 5619 5618 5617 5616 5614 5613 5612 5611 5610 5609 5607 5606 5604
5601 5603 5604 5605 5606 5607 5608 5609 5610 5611 5612 5613 5613 5614 5614 5614 5614 5614 5614 5613 5613 5613 5612 5612 5611 5611 5610 5609 5609 5607 5606 5606 5605 5604 5601 5600 5598 5596 5595 5593 5591 5590 5587
5590 5591 5593 5594 5595 5596 5598 5599 5599 5600 5601 5602 5603 5603 5603 5603 5603 5603 5603 5602 5602 5601 5601 5601 5600 5600 5599 5598 5597 5596 5594 5593 5592 5590 5588 5587 5584 5582 5580 5577 5575 5573 5571
5579 5580 5581 5583 5584 5586 5587 5588 5588 5589 5590 5591 5591 5592 5592 5592 5591 5591 5591 5591 5591 5590 5590 5589 5589 5588 5587 5585 5585 5584 5582 5581 5579 5577 5575 5574 5571 5568 5565 5562 5560 5557 5555
5567 5569 5570 5572 5573 5575 5576 5576 5577 5578 5579 5580 5580 5580 5580 5580 5581 5580 5580 5580 5580 5579 5578 5578 5577 5575 5574 5574 5573 5572 5570 5569 5567 5565 5563 5561 5558 5556 5552 5549 5546 5543 5540
5555 5557 5559 5560 5562 5563 5564 5565 5566 5566 5567 5568 5569 5569 5569 5569 5569 5568 5568 5568 5568 5568 5567 5567 5566 5564 5564 5562 5561 5560 5558 5556 5554 5553 5551 5548 5545 5542 5540 5536 5532 5529 5526